Weather observations for the past three days for
Mekoryuk, Mekoryuk Airport
Imperial (Metric)
Date Time (akdt) Wind (mph) Vis. (mi.) Weather Sky Cond. Temperature (ºF) Relative Humidity Wind Chill (°F) Heat Index (°F) Pressure Precipitation (in)
Air Dwpt 6 hour altimeter (in) sea level (mb) 1 hr 3 hr 6 hr
Max. Min.
17 15:56 NW 9 10.00 Partly Cloudy SCT080 48.9 45 50 46.9 86% 45 29.99 1015.3
17 14:56 NW 10 10.00 Fair CLR 48.9 45 86% 45 30 1015.7
17 13:56 NW 10 10.00 Mostly Cloudy BKN085 48.9 45 86% 45 30.02 1016.3
17 12:56 N 10 10.00 Mostly Cloudy BKN090 48.9 44.1 83% 45 30.03 1016.6
17 11:56 N 9 10.00 A Few Clouds FEW080 48 44.1 86% 44 30.02 1016.5
17 10:56 N 8 10.00 Fair CLR 48 44.1 86% 45 30.02 1016.5
17 09:56 NW 8 10.00 Fair CLR 46.9 43 46.9 39 86% 44 30.03 1016.7
17 08:56 NW 8 10.00 Fair CLR 46 43 89% 42 30.03 1016.8
17 07:56 NW 8 10.00 Fair CLR 44.1 42.1 93% 40 30.03 1016.9
17 06:56 NW 6 10.00 Fair CLR 43 42.1 97% 40 30.04 1016.9
17 05:56 W 6 10.00 Partly Cloudy SCT110 39.9 39 97% 36 30.04 1017.0
17 03:56 N 7 10.00 Fair CLR 43 42.1 46.9 43 97% 39 30.05 1017.5
17 02:56 N 9 10.00 Fair CLR 44.1 43 96% 40 30.06 1017.6
17 01:56 N 8 10.00 Fair CLR 44.1 43 96% 40 30.07 1018.1
17 00:56 N 7 10.00 Fair CLR 44.1 42.1 93% 41 30.08 1018.4
16 23:56 N 9 10.00 Fair CLR 44.1 42.1 93% 40 30.08 1018.5
16 22:56 NW 10 10.00 Fair CLR 45 42.1 90% 40 30.08 1018.5
16 21:56 NW 7 10.00 Fair CLR 46.9 42.1 53.1 46.9 83% 44 30.09 1018.7
16 20:56 NW 9 10.00 Fair CLR 46.9 43 86% 43 30.1 1019.0
16 19:56 NW 10 10.00 Fair CLR 48 43 83% 44 30.11 1019.5
16 18:56 NW 9 10.00 Fair CLR 48.9 44.1 83% 45 30.12 1019.7
16 17:56 NW 12 10.00 Fair CLR 48.9 44.1 83% 45 30.13 1020.2
16 16:56 NW 9 10.00 Fair CLR 52 46 80% 30.14 1020.6
16 15:56 N 8 10.00 Fair CLR 52 46 52 50 80% 30.16 1021.1
16 14:56 N 8 10.00 Fair CLR 51.1 45 80% 30.16 1021.3
16 13:56 N 8 10.00 Fair CLR 52 46 80% 30.17 1021.6
16 12:56 N 8 10.00 Fair CLR 52 46 80% 30.18 1021.8
16 11:56 N 8 10.00 Fair CLR 51.1 46.9 86% 30.19 1022.0
16 10:56 N 6 10.00 Fair CLR 50 46.9 89% 48 30.19 1022.2
16 09:56 NE 6 10.00 Fair CLR 52 46 52 39.9 80% 30.2 1022.4
16 08:56 NE 6 10.00 Fair CLR 50 46.9 89% 48 30.2 1022.5
16 07:56 Calm 10.00 Fair CLR 48 46 93% 30.2 1022.5
16 06:56 Calm 0.75 Fog/Mist CLR 41 39.9 96% 30.2 1022.4
16 05:56 Calm 10.00 Fair CLR 44.1 43 96% 30.2 1022.4
16 04:56 E 3 10.00 Fair CLR 44.1 42.1 93% 30.2 1022.6
16 03:56 SE 6 10.00 Fair CLR 46.9 44.1 50 46.9 90% 45 30.21 1022.7
16 02:56 E 5 10.00 Fair CLR 48.9 45 86% 48 30.2 1022.6
16 00:56 NE 7 10.00 Fair CLR 48.9 45 86% 46 30.2 1022.6
15 23:56 NE 7 10.00 Fair CLR 48.9 44.1 83% 46 30.19 1022.3
15 22:56 N 9 10.00 Fair CLR 48.9 43 80% 45 30.19 1022.0
15 21:56 N 12 10.00 Fair CLR 50 44.1 57 50 80% 46 30.19 1022.0
15 19:56 N 12 10.00 Fair CLR 52 45 77% 30.2 1022.3
15 12:56 N 6 10.00 Fair CLR 48.9 44.1 83% 47 30.23 1023.6
15 11:56 NW 6 10.00 Fair CLR 46.9 42.1 83% 45 30.24 1023.7
15 10:56 NW 5 10.00 Fair CLR 45 42.1 90% 43 30.24 1023.9
15 09:56 W 5 2.50 Fog/Mist OVC002 42.1 41 42.1 33.1 96% 40 30.25 1024.0
15 08:56 W 6 0.50 Light Rain Fog OVC002 39 37.9 96% 35 30.25 1024.2
15 07:56 W 8 10.00 Overcast OVC002 36 36 100% 30 30.25 1024.2
15 06:56 W 7 0.50 Fog OVC002 34 33.1 97% 29 30.25 1024.3
15 05:56 W 8 0.75 Fog/Mist OVC002 34 33.1 97% 28 30.25 1024.3
15 04:56 W 7 0.25 Light Rain Fog OVC002 34 34 100% 29 30.26 1024.5
15 03:56 W 7 0.25 Light Rain Fog OVC002 34 34 39 34 100% 29 30.26 1024.6
15 02:56 SW 6 0.25 Light Rain Fog OVC002 34 34 100% 29 30.27 1025.0
15 01:56 W 6 0.25 Light Rain Fog OVC002 35.1 35.1 100% 31 30.27 1025.0
15 00:56 W 6 0.25 Light Rain Fog OVC002 36 36 100% 32 30.28 1025.2
14 23:56 W 5 0.25 Light Rain Fog OVC002 37 36 96% 34 30.28 1025.1
14 22:56 Calm 0.25 Light Rain Fog OVC002 37.9 37.9 100% 30.27 1024.9
14 21:56 NW 5 0.25 Light Rain Fog OVC002 39 37.9 48 39 96% 36 30.28 1025.2
14 19:56 N 8 0.75 Light Rain Fog/Mist BKN002 39.9 39 97% 35 30.28 1025.1
14 18:56 NE 10 10.00 Fair CLR 43 39.9 89% 38 30.27 1024.7
14 17:56 NE 12 10.00 Fair CLR 46 41 83% 41 30.27 1024.8
14 16:56 NE 12 10.00 Fair CLR 48 41 77% 44 30.27 1025.0
Date Time (akdt) Wind (mph) Vis. (mi.) Weather Sky Cond. Air Dwpt Max. Min. Relative Humidity Wind Chill (°F) Heat Index (°F) altimeter (in) sea level (mb) 1 hr 3 hr 6 hr
6 hour
Temperature (ºF) Pressure Precipitation (in)